TimeCDT,TemperatureF,Dew PointF,Humidity,Sea Level PressureIn,VisibilityMPH,Wind Direction,Wind SpeedMPH,Gust SpeedMPH,PrecipitationIn,Events,Conditions,WindDirDegrees,DateUTC
12:53 AM,84.9,48.9,29,29.90,10.0,South,10.4,-,N/A,,Clear,190,2013-06-28 05:53:00
1:53 AM,82.9,51.1,33,29.88,10.0,South,10.4,-,N/A,,Clear,190,2013-06-28 06:53:00
2:53 AM,81.0,52.0,36,29.89,10.0,South,6.9,-,N/A,,Clear,180,2013-06-28 07:53:00
3:53 AM,79.0,53.1,40,29.89,10.0,South,5.8,-,N/A,,Clear,190,2013-06-28 08:53:00
4:53 AM,75.9,53.1,45,29.91,10.0,Calm,Calm,-,N/A,,Clear,0,2013-06-28 09:53:00
5:53 AM,72.0,52.0,49,29.91,10.0,West,4.6,-,N/A,,Clear,280,2013-06-28 10:53:00
6:53 AM,75.0,54.0,48,29.95,10.0,NNW,5.8,-,N/A,,Clear,340,2013-06-28 11:53:00
7:53 AM,75.9,55.9,50,29.96,10.0,West,3.5,-,N/A,,Clear,280,2013-06-28 12:53:00
8:53 AM,82.9,57.0,41,29.96,10.0,West,5.8,-,N/A,,Clear,270,2013-06-28 13:53:00
9:53 AM,84.0,55.9,38,29.96,10.0,SSW,9.2,-,N/A,,Clear,210,2013-06-28 14:53:00
10:53 AM,87.1,55.0,33,29.95,10.0,SW,8.1,-,N/A,,Clear,220,2013-06-28 15:53:00
11:53 AM,91.0,53.1,27,29.95,10.0,WSW,6.9,-,N/A,,Clear,250,2013-06-28 16:53:00
12:53 PM,93.9,51.1,23,29.94,10.0,South,4.6,-,N/A,,Clear,190,2013-06-28 17:53:00
1:53 PM,97.0,51.1,21,29.92,10.0,North,5.8,-,N/A,,Clear,10,2013-06-28 18:53:00
2:53 PM,99.0,51.1,20,29.89,10.0,Variable,3.5,-,N/A,,Clear,0,2013-06-28 19:53:00
3:53 PM,102.0,52.0,19,29.87,10.0,Calm,Calm,-,N/A,,Clear,0,2013-06-28 20:53:00
4:53 PM,102.0,51.1,18,29.84,10.0,Variable,5.8,-,N/A,,Clear,0,2013-06-28 21:53:00
5:53 PM,102.0,51.1,18,29.82,10.0,North,5.8,-,N/A,,Clear,10,2013-06-28 22:53:00
6:53 PM,100.9,46.9,16,29.81,10.0,ENE,5.8,-,N/A,,Clear,70,2013-06-28 23:53:00
7:53 PM,100.0,48.9,18,29.80,10.0,East,6.9,-,N/A,,Clear,100,2013-06-29 00:53:00
8:53 PM,97.0,50.0,20,29.81,10.0,East,6.9,-,N/A,,Clear,90,2013-06-29 01:53:00
9:53 PM,93.9,51.1,23,29.83,10.0,ENE,8.1,-,N/A,,Clear,70,2013-06-29 02:53:00
10:53 PM,90.0,51.1,26,29.85,10.0,East,8.1,-,N/A,,Clear,80,2013-06-29 03:53:00
11:53 PM,89.1,54.0,30,29.85,10.0,East,10.4,-,N/A,,Clear,90,2013-06-29 04:53:00